Вернуться в каталог

STARLINK-33860

АктивенСвязьVLEO
NORAD 64033·PAYLOAD·🇺🇸 United States

Запущен May 16, 2025 с Vandenberg Space Force Base

Loading…

Ближайшие Пролёты (ближайшие 24 часа)

TLE

СвежийSource: CelesTrak SupGP

Эпоха: Sep 15, 2026, 02:17 UTC

1 64033C 25102M   26258.09562500  .00081196  00000+0  28252-2 0  2589
2 64033  70.0010 355.1193 0003228 268.3930 244.6743 15.29530420    11

Отслеживайте STARLINK-33860 в реальном времени с AllMySat

Download on the App Store